Location: Lac Lasalle
(46.0398°N, 74.1576°W)
Time: 01:56:29
(UTC-05:00)

SEEDS - Pass Details

Date: 19 December 2019
Orbit: 586 x 603 km, 97.5° (Epoch: 27 January)

Event Time Altitude Azimuth Distance (km) Brightness Sun altitude
Rises 17:37:46 0° 193° (SSW) 2,806 ? -14.0°
Reaches altitude 10° 17:40:09 10° 205° (SSW) 1,913 ? -14.4°
Maximum altitude 17:43:45 28° 265° (W) 1,113 ? -15.0°
Drops below altitude 10° 17:47:25 10° 326° (NW) 1,936 ? -15.6°
Sets 17:49:50 0° 338° (NNW) 2,846 ? -16.0°
